This is the latest recevied weather packets stored in our database for station/object KJ6APE. If no packets are shown the sender has not sent any weather packets the latest 10 day(s).
| Time | Temp. | Humidity | Pressure | Rain* | Wind** | Luminosity | Snow |
|---|---|---|---|---|---|---|---|
| 1777958803 | 11.67° C | 89% | 1015.4 hPa | 1.78 mm | - | 0 W/m² | - |
| 1777958501 | 12.22° C | 89% | 1015.3 hPa | 0 mm | - | 0 W/m² | - |
| 1777958197 | 12.22° C | 89% | 1015.3 hPa | 0 mm | - | 0 W/m² | - |
| 1777957896 | 12.22° C | 88% | 1015.6 hPa | 0 mm | - | 0 W/m² | - |
| 1777957593 | 12.22° C | 88% | 1015.7 hPa | 0 mm | - | 0 W/m² | - |
| 1777957291 | 12.22° C | 88% | 1015.5 hPa | 1.27 mm | - | 0 W/m² | - |
| 1777956986 | 12.22° C | 87% | 1015.8 hPa | 3.05 mm | - | 0 W/m² | - |
| 1777956685 | 12.22° C | 86% | 1015.8 hPa | 1.78 mm | - | 0 W/m² | - |
| 1777956381 | 12.22° C | 85% | 1015.8 hPa | 3.05 mm | - | 0 W/m² | - |
| 1777956078 | 12.78° C | 84% | 1016 hPa | 1.27 mm | - | 0 W/m² | - |
| 1777955774 | 12.78° C | 84% | 1016.2 hPa | 0 mm | - | 0 W/m² | - |
| 1777955471 | 12.78° C | 84% | 1016.1 hPa | 1.78 mm | - | 0 W/m² | - |
| 1777955166 | 12.78° C | 83% | 1016.1 hPa | 3.05 mm | - | 0 W/m² | - |
| 1777954864 | 13.33° C | 82% | 1016.1 hPa | 1.27 mm | - | 0 W/m² | - |
| 1777954561 | 13.33° C | 80% | 1016.1 hPa | 0 mm | - | 0 W/m² | - |
| 1777954258 | 13.33° C | 78% | 1016 hPa | 0 mm | - | 0 W/m² | - |
| 1777953955 | 13.33° C | 76% | 1016.1 hPa | 0 mm | - | 0 W/m² | - |
| 1777953653 | 13.89° C | 76% | 1015.9 hPa | 0 mm | - | 0 W/m² | - |
| 1777953349 | 13.89° C | 77% | 1015.8 hPa | 0 mm | - | 0 W/m² | - |
| 1777953046 | 13.89° C | 77% | 1015.8 hPa | 0 mm | - | 0 W/m² | - |
| 1777952742 | 13.89° C | 77% | 1015.5 hPa | 0 mm | - | 0 W/m² | - |
| 1777952439 | 13.89° C | 77% | 1015.3 hPa | 0 mm | - | 0 W/m² | - |
| 1777952136 | 13.89° C | 77% | 1015.6 hPa | 0 mm | - | 0 W/m² | - |
| 1777951834 | 13.89° C | 76% | 1015.3 hPa | 0 mm | - | 0 W/m² | - |
| 1777951531 | 13.89° C | 76% | 1015.2 hPa | 0 mm | - | 0 W/m² | - |
* Rain latest hour (hover to see other rain measurements)
** Current wind speed in m/s (hover to see current wind gust speed)